"Pseudo-MPEC" for gb00279

Created 2021 Jun 17 4:07:30 UT using Find_Orb

Click here for an explanation of pseudo-MPECs

 
 Astrometry: 
     gb00279  C2021 06 08d#W-H`+^KRW`/o_\93kh:HM.1QIRL$fj(CwP](ib5HxJbZcuK+5ML51
     gb00279  C2021 06 082w_c!k5%WZ-TW87:')['+dbnAstrometry93S(;eTO'E,#RnWd,IL51
     gb00279  C2021 06 08$g#a%h.D*V]r0f3OFgXM2w35O'Gmgpq.s21R!sP+)4WmTjCW!'DRL51
     gb00279  C2021 06 10:3(vZO=*GW37d4d:tm(+a6v*j-_K+8@?tSI38J9I^*3LH(d,W!(;L51
     gb00279  C2021 06 10Eiqu87nf-G6@9`4cDPKgXK]CW:x9/w)cnX_LhlMXgg?!P=sZh:9:L51
     gb00279  C2021 06 10w6qkh1end4L@sxbfKASl:.B1'#Bpn?`?eN*?mx]'$#!V@g(;ttU(L51
     gb00279 hC2021 06 10qf/N@+x4K^.jf8/Ykm;oJLj]._W\n9-55U.3D3KR#kD2%i%@_P6eL01
     gb00279  C2021 06 10tsM4*c(wq=y`s-Nq@S#CEG0Jk5DP?Zon-v(k_0h0(gK!OyLIROmwL51
     gb00279 hC2021 06 10PW!AlyKf3t4@p10St.AEcJD5sw@Now*jD]p0qjD7;:#%tVy)QEl!L01
     gb00279 hC2021 06 10C\Oto#IG-nkjdU;.SS#m0(gf\J'=sJSHE-rHW?/K0SieoQrUe2],L01
     gb00279 hC2021 06 10R?WpND%[l$hdy)5JmBm27E*mTI%7VX1g(eoLj*snr]trAcvh,D!wL01
     gb00279 2C2021 06 11i+ECU$4e6y,??UE/_rX10,)QJZ?0$taG,D5e2!f`t+;tnTlegIS7095
     gb00279 2C2021 06 11]M!aGb'I`hLpi8VdwK^l%PLE-9H:*+g_Fi.JKHAmt7\gHds8VSC]095
     gb00279 2C2021 06 11RPvj[+2@QUB9%GaF:5^w`Qg3jw@3Zr=1r-lW?2.tU!=R8n.xEO2i095
     gb00279 2C2021 06 11MRVa%srw'UQ=O,?)b[)YgBMvtMK`pRmMnr@Iredacted;[_$\6ve095
     gb00279 2C2021 06 11v;n8PwrsynnsTw!$ts$:C:S!PCw;sl/2w`^oZ]c(6\;^sj1Q_Tk8095
     gb00279 2C2021 06 110A\a\/TEA+,Yf==n[S*PJBI:TTSbFlrg(Z$7hI3sUlMucjixwt(!095
     gb00279 2C2021 06 11p+pJ`I3,;_Mws+i;UhdH;`2_)d7Wm8Nx.x^XeDM%LKRWnnfp\QRk095
     gb00279 2C2021 06 11*kto(RAZ:)XSaxwiW#n/[b#G2:RPlw5]r^@$a^nDpG,HyO%Ci7+l095
     gb00279 2C2021 06 119=`kGclick,i6D;tdsN%WCI'D/Pw^/T'xkfE*]+v_l?u64J-R%ON095
     gb00279 2C2021 06 11Et^Oqv9KXkqD6!\vQAhJpX^tXkM7/?/v#^HTQM2Cx0Yl/+3QV^/:095
     gb00279 2C2021 06 11XA`+Xobx$8U=`/nhA7fRK@D4L2f\JOP(q6hO`PMdh)[)l*K4A7@F095
     gb00279 2C2021 06 112[8*!tT*J7!;%Q!/X?w;UZ._+vC'/4G?qAM!Ed#`i.;R@[P\60DO095
     gb00279 2C2021 06 11@/966H$RIC#jq%i5\*YjE10ZaFJLjyBd/5Ty7Y,`V/*M4s=p#v:#095
     gb00279 2C2021 06 11-%]I%.Opaq4J`iJwV7XeA`T:#$y?u`xX/#@^s\/b,o+VF-2]ex$K095
     gb00279 2C2021 06 11RsNVk'OfhMDQQ?6$!y@-IKdIXv-xNe#Z^,k)3toUHn-S3w1hPRuy095
     gb00279 KC2021 06 11W9Ijj0hOkS4wxqergtt['MHX96/Ee.%1louZgKt9Wr0vkwqe2Rm4L06
     gb00279  C2021 06 111,$@Qj(-o:54+`:SLxdHC;s/(LV]bA#m1_ZyTxii])]=]/p!29+DL51
     gb00279 KC2021 06 11WXa:t\qAGWv[0herePYSsp7WhN@^ORQk8Tjof+dag5\hFXI1c\d\L06
     gb00279  C2021 06 11RU9t)4X2f0XXdHN*Slkt'NN`e_I!#,-Yy(3`OTJ-2h/`s,j4l,SKL51
     gb00279  C2021 06 11UVL2bYkb;bu7Oxo-VhIc,9QSym`JP4YcZA%Bp[Ya1VrxA5+4f^33L51
     gb00279 KC2021 06 11x75:A$s*^n/?j9?,J5bBaacwFQc^dQ\U@PvD$(rjb74U0@Yy)!aDL06
     gb00279 2C2021 06 118jo!N3,0hM:dqETk5p(ILmj_lMa-qYEa)!i-S+4mI,2n:#]0_-6,095
     gb00279 2C2021 06 11QvS$7`uJ`6Sa%pH2U]%XCk']HdGbK8nV4!Z%/Oy)=XSejbp@E;G\095
     gb00279 2C2021 06 11df*L7vtndv(i88r:kUWJ.v:JydkD8[jXeppajKfFnX8fr*v).^ZH095
     gb00279 2C2021 06 11/Y3W9l8]KWSurCmwd9kB,2ojbRxF2FUE3/#Voc[Mp0E:#wXpB.Il095
     gb00279 KC2021 06 11pjqhk4Xjk_F`[3Mk3Andy,SA;#geYX\!#c55SNSg+4TXYAy'+xElB49
     gb00279 2C2021 06 12+fabTLufcwCL2XYm-248Bp3dI:IG_;,Vo4)jlgwrTUQ!=5.qWX*u095
     gb00279 2C2021 06 12'Dy(]n5cK*QTN+p(r$8#%.t:=kKuO!#s+0ntN?X%M-1'WmS[+V`:095
     gb00279 2C2021 06 12*T1u%,$cwobOC6Hovc#@NW!3ga'L;8GtE!b#[W?0!UYWK/@+f`3w095
     gb00279 KC2021 06 12;G?VNkqglEfrNP\`oF;%Yr*Bl5/RI`GJ%#xJN?=s_5th?0N5VC:jB49
     gb00279 2C2021 06 12oD2a3um66:`;=9fkX]L8,lH4'YWuIs5g,e4C!N]pEv6jUs.MFG38095
     gb00279 |C2021 06 12IGs(Xn+^gA%M,9JaA.W@^n0mAr@As-3CT,%fT1$u,)I8vMS=507tH06
     gb00279 |C2021 06 12X!ATtbuGo/D$oJD$5IyAR3)Pf?v8m/95cgQ85!3Xq]#uLLtmXQZaH06
     gb00279  C2021 06 12[Fbwn,m]o[4aJ4c]GZuJ/!v]o.4OpoP2JMfrYYU(niirW,0$f_(OL51
     gb00279  C2021 06 12`$3/g!97qiIuimOHH1qkCaS'M8/WShjb/k!Fjok`^^5`,F1Q!UTbL51
     gb00279  C2021 06 12b5iUDF.fjpu6ru,jx#(\lCCm.tn=N0=S[Ti(D9X4eSA(x?_ZUQ#xL51
     gb00279 KC2021 06 13.00787 22 02 33.26 +72 22 32.6    ~6D1M 20.1 GVNEOCP970
     gb00279 KC2021 06 13DfMl)UV/s0D5dgqb'OwF]N[]golsskq9dBst,F*P[nrS1y\.E?LNB96
     gb00279 KC2021 06 13.02399 22 02 32.69 +72 22 41.4    ~6D1M 19.8 GVNEOCP970
     gb00279 KC2021 06 13Tc;JUhw`6$Xlx8)oNQgfor'b@=p?]vGk9=;o+lok(hI;4HYL+(T\B96
     gb00279 KC2021 06 13I5yCSI=jd[9[Q.gwX2ZF\uZ*.`ikoK:*$8]NU'N?=AUHPBEb.%.DB96
     gb00279 KC2021 06 13TBN=\qb+C6!:M)I/WCLyxt)@sk(SSMaOU$eMfqJCaK74UaCf^I?\J57
     gb00279  C2021 06 13CVqm^J11)Ajon0explanation@S'iEox`9eDb^`a\W.t[c`Fl'6;L51
     gb00279 KC2021 06 13uG[mTb6y259KT]g8='SS8NM%4tq;03j1H]fes?wb3pC/h%A=XoE]J57
     gb00279  C2021 06 13]?/xOvB;D%[cS`;32^`ALe]m\p='SbS*^uE]UF.Z-IH#[,cV2(:YL51
     gb00279  C2021 06 13?dv=Q!Z^+Y*!4dBDcFlf'R*^2Rx+N`3Yam=FfQ*AenCb8,b_MikWL51
     gb00279 KC2021 06 13'0C3bO)j5=JPdAPPrZr8NoT@%)+K`g5)TQ2^A!UE+?A[J9oBQCk+587
     gb00279 KC2021 06 13GGwP-H6N]t(4,f0buUm;vOejxauv,[:T(7*i`u=wof!@vc+11\:vA71
     gb00279 KC2021 06 1387!4C\NQ?@\bZWZWLZw'MEYVMoJ#ubnPQlgYC,yYHYj(kpbBx=pwA71
     gb00279 KC2021 06 133)-axWM?gWJYD*VP)jy=Z[.QD*);N)3i[j..cufh.0r;!.niO@M1A71
     gb00279 KC2021 06 13.99295622 01 48.68 +72 31 26.0    ~6E0q 20.1 GVNEOCPJ95
     gb00279 KC2021 06 13IheO=o,*`n9#CYkQCcp8?$,7G6rgc]6,H?#q5cuXoS!(D-KbW'5$B96
     gb00279 IC2021 06 14.00591622 01 48.16 +72 31 32.9    ~6E0q       VNEOCPJ95
     gb00279 KC2021 06 14]:jJXM;v4AmJ*IybRFQ%L9\j@qH8.=)YuVN9,b4Tf#@[vryvIXHb587
     gb00279 KC2021 06 14:l\e;OtXX--h5OQ4]R`^g60f34x[vl(32wb`/@mb(p73*tQ65i$%B96
     gb00279 KC2021 06 14TD8hCNd5VQG-9-3TXv6NgJ2UH+y0SKIAHQ+7a]9nPF0dUB:EJ'I\B96
     gb00279 KC2021 06 14C%^($e9Wjx8m]O.tBKCf5x.OwX0G:.LR6*=)aaE9Slv]K%VvHBeFL27
     gb00279 KC2021 06 14PnDbXEfqUW!L`4,/AR+$-0*c`R`%SjsQSRv/rGOHk6YvMN2%5CcSL27
     gb00279 KC2021 06 14];9cn)6E6huF;BdjD/ZbBViw_Ny?'\Z@y)$6(nX$:sYEhxa1/QbHL27
     gb00279 KC2021 06 15-dv`)$B=xvFV2OKj-ed-x\RgZ:RCE:E,XBl;h2xdY/vbZAoy_VxAL27
     gb00279 KC2021 06 15/?U#Kyex.w@ltB$s-7\]S$HocYm*hf:E7m!Vk/S2cy,+XYlo;PI1L27
     gb00279 KC2021 06 15TK'*NL;KR/L/!5gxM^t-PCFh[roSVw/)8TEi[TjpJ1o@_SnF)8HdL27

Station data:
(095) Crimea-Nauchnij  (N44.726558 E34.016000)  Ukraine.
(587) Sormano  (N45.882949 E9.229180)  Italy.  Observers F. Manca, A. Testa.
   Measurer F. Manca. 0.5-m + CCD.
(970) Chelmsford  (N51.744716 E0.495400)  UK.  Observer N. James. 0.28-m f/10
   Schmidt-Cassegrain + CCD.
(A71) Stixendorf  (N48.428775 E15.453300)  Austria.
(B49) Paus Observatory, Sabadell  (N41.551035 E2.112500)  Spain.
(B96) Brixiis Observatory, Kruibeke  (N51.163512 E4.310310)  Belgium.
(H06) RAS Observatory, Mayhill  (N32.903325 W105.528700)  US/New
   Mexico.  Observers E. Guido, G. Sostero, V. Gonano, L. Donato.
(J57) Centro Astronómico Alto Turia, Valencia  (N39.950159 W1.109110)  Spain.
(J95) Great Shefford  (N51.474969 W1.447003)  UK.  Observer P. Birtwhistle.
   0.40-m f/6.0 Schmidt-Cassegrain + CCD.
(L01) Višnjan Observatory, Tičan  (N45.290900 E13.749300)  Croatia.
   Observers K. Korlević, E. Pettarin. Measurer E. Pettarin. 1.0-m f/2.9
   reflector + CCD.
(L06) Sormano 2 Observatory, Bellagio Via Lattea  (N45.970103 E9.254030)
   Italy.
(L27) 29PREMOTE Observatory, Dauban  (N43.999847 E5.647040)  France.
(L51) MARGO, Nauchnij  (N44.729400 E34.016400)  Ukraine.

Orbital elements:  gb00279
   Perihelion 2022 May 19.480836 +/- 71.0956 TT = 11:32:24 (JD 2459718.980836)
Epoch 2021 Jun 15.0 TT = JDT 2459380.5                        AutoNEOCP
M 359.26025590 +/- 0.2479113        (J2000 ecliptic)
n   0.00218548 +/- 0.00198612       Peri.   96.70831 +/- 4.2751942
a  58.8081837 +/- 35.7264           Node   345.01704 +/- 0.2517786
e   0.8594128 +/- 0.0861102         Incl.   78.66942 +/- 0.0611036
P 450.98                   H 10.5   G  0.15   U  8.6  
q 8.26767539 +/- 0.131908    Q 109.348692 +/- 164.941
From 73 observations 2021 June 8-15; mean residual 0".45
Residuals in arcseconds: 
210608 L51  .10-  .04+    210611 095  .13+  .38+    210613 B96  .67-  .26+    
210608 L51  .55+  .32+    210611 L06  .05+  .24-    210613 B96  .97-  .59+    
210608 L51  .09+  .38-    210611 L51  .29-  .54+    210613 J57  .25+  .87+    
210610 L51  .65-  .00     210611 L06  .38+  .28-    210613 L51  .28-  .86-    
210610 L51  1.6-  1.1-    210611 L51  .43+  .05-    210613 J57  .65+  .20+    
210610 L51  .24-  .69-    210611 L51  .05-  .55+    210613 L51  .25-  .38-    
210610 L01  .08-  .43-    210611 L06  .50+  .37-    210613 L51  .16-  .08+    
210610 L51  .83-  .27+    210611 095  .22+  .37+    210613 587  .12-  .08-    
210610 L01  .05-  .08-    210611 095  .23+  .39+    210613 A71  .10-  .40+    
210610 L01  .58-  .13-    210611 095  .04-  .61+    210613 A71  .35+  1.4-    
210610 L01  .41-  .25+    210611 095  .12-  .83+    210613 A71  .61+  .27-    
210611 095  .23+  .48+    210611 B49  .13+  .01+    210613 J95  .29-  .11-    
210611 095  .23+  .48+    210612 095  .52+  .10+    210613 B96  .33+  .33-    
210611 095  .24+  .47+    210612 095  .39+  .22+    210614 J95  .09+  .26-    
210611 095  .24+  .27+    210612 095  .22+  .24+    210614 587  .54-  .51-    
210611 095  .29+  .27+    210612 B49  1.4+  .26-    210614 B96  .79+  .79+    
210611 095  .29+  .36+    210612 095  .14+  .05+    210614 B96  1.0-  .50-    
210611 095  .31+  .17+    210612 H06  .43+  .27+    210614 L27  .43+  .60+    
210611 095  .13+  .38+    210612 H06  .21+  .52+    210614 L27  .18+  .50+    
210611 095  .01-  .40+    210612 L51  .09-  .06+    210614 L27  .37-  .50+    
210611 095  .06-  .51+    210612 L51  .59-  .39-    210615 L27  .01-  .46+    
210611 095  .04+  .42+    210612 L51  .58-  .31-    210615 L27  .11+  .13+    
210611 095  .17+  .34+    210613 970  .07+  .47+    210615 L27  .07+  .09-    
210611 095  .22+  .35+    210613 B96  .42-  .14+    
210611 095  .27+  .27+    210613 970  .74+  .45+    

Ephemerides (geocentric):
Date (UTC) HH   RA              Dec         delta   r     elong  mag " sig PA
---- -- -- --  -------------   -----------  ------ ------ -----  --- ---- ---
